Regional Weather Roundup
Issued by NWS

Home | Current Version | Previous Version | Text Only | Print | Product List | Glossary Off
Versions: 1 2 3 4 5 6 7 8 9 10 11 12 13 14 15 16 17 18 19 20 21 22 23 24 25 26 27 28 29 30 31 32 33 34 35 36 37 38 39 40 41 42 43 44 45 46 47 48 49 50

000
ASUS43 KLMK 030302
RWRKY
KENTUCKY REGIONAL WEATHER ROUNDUP
NATIONAL WEATHER SERVICE LOUISVILLE KY
1100 PM EDT TUE JUN 02 2015

NOTE "FAIR" INDICATES FEW OR NO CLOUDS BELOW 12,000 FEET
WITH NO SIGNIFICANT WEATHER AND/OR OBSTRUCTIONS TO VISIBILITY.

KYZ001>023-026-027-061>063-070>075-030400-
WESTERN AND SOUTH CENTRAL KENTUCKY

CITY           SKY/WX    TMP DP  RH WIND       PRES   REMARKS
PADUCAH        CLOUDY    63  58  83 NE5       30.06R
HENDERSON      CLEAR     57  54  88 CALM      30.07R
OWENSBORO      CLEAR     61  57  86 CALM      30.08R
HOPKINSVILLE   CLOUDY    62  59  90 NE7       30.05S
BOWLING GREEN  CLOUDY    64  57  78 NE5       30.07R
GLASGOW        NOT AVBL
$$

KYZ024-025-028>034-038-045-046-053-030400-
NORTH CENTRAL KENTUCKY

CITY           SKY/WX    TMP DP  RH WIND       PRES   REMARKS
LOUISVILLE/SDF CLOUDY    63  53  70 NE9       30.10R
LOUISVILLE/LOU CLOUDY    62  52  69 NE9       30.10R
FORT KNOX      MOCLDY    58  53  81 NE7       30.08R
$$

KYZ035>037-039>044-047>052-055>060-089>105-030400-
NORTHEAST KENTUCKY

CITY           SKY/WX    TMP DP  RH WIND       PRES   REMARKS
LEXINGTON      CLOUDY    59  54  83 E5        30.11R
COVINGTON      CLOUDY    60  53  77 CALM      30.11
FRANKFORT      CLOUDY    60  53  77 CALM      30.10R
$$

KYZ054-064>069-076>088-106>120-030400-
SOUTHEAST KENTUCKY

CITY           SKY/WX    TMP DP  RH WIND       PRES   REMARKS
JACKSON        CLOUDY    57  55  93 CALM      30.09S FOG
LONDON         CLOUDY    61  54  77 NE6       30.08R
SOMERSET       NOT AVBL
MIDDLESBORO    CLOUDY    63  59  86 N5        30.07R
MONTICELLO     CLOUDY    62  58  87 NE6       30.10R
$$




USA.gov is the U.S. government's official web portal to all federal, state and local government web resources and services.